| time (UTC) | temp C | wind direction | speed KPH | gust KPH | rain 1hr cm | rain 24hr cm | rain mn cm | humidity % | barometer mb |
| 20260506113124 | 15 | 281 | 3.2 | 4.8 | 0.00 | 0.28 | 0.00 | 31 | 1004.0 |
| 20260506112523 | 15 | 280 | 0.0 | 0.0 | 0.00 | 0.28 | 0.00 | 31 | 1004.0 |
| 20260506111925 | 15 | 280 | 0.0 | 4.8 | 0.00 | 0.28 | 0.00 | 32 | 1004.0 |
| 20260506110724 | 15 | 278 | 0.0 | 0.0 | 0.00 | 0.28 | 0.00 | 30 | 1004.0 |
| 20260506110124 | 15 | 278 | 4.8 | 4.8 | 0.00 | 0.28 | 0.00 | 29 | 1004.0 |
| 20260506105520 | 15 | 324 | 4.8 | 4.8 | 0.00 | 0.28 | 0.00 | 30 | 1004.0 |
| 20260506103717 | 15 | 290 | 3.2 | 3.2 | 0.00 | 0.28 | 0.00 | 29 | 1004.0 |
| 20260506103118 | 15 | 314 | 4.8 | 4.8 | 0.00 | 0.28 | 0.00 | 28 | 1004.0 |
| 20260506101318 | 15 | 283 | 3.2 | 3.2 | 0.00 | 0.28 | 0.00 | 38 | 1004.0 |
| 20260506100716 | 14 | 289 | 3.2 | 3.2 | 0.00 | 0.28 | 0.00 | 38 | 1005.0 |
| 20260506095518 | 13 | 284 | 3.2 | 3.2 | 0.00 | 0.28 | 0.00 | 39 | 1005.0 |
| 20260506094916 | 13 | 283 | 0.0 | 0.0 | 0.00 | 0.28 | 0.00 | 41 | 1005.0 |
| 20260506093716 | 13 | 114 | 0.0 | 4.8 | 0.00 | 0.28 | 0.00 | 51 | 1005.0 |
| 20260506093115 | 13 | 121 | 4.8 | 4.8 | 0.00 | 0.28 | 0.00 | 52 | 1005.0 |
| 20260506092512 | 13 | 120 | 4.8 | 4.8 | 0.00 | 0.28 | 0.00 | 52 | 1005.0 |
| 20260506091306 | 13 | 120 | 0.0 | 3.2 | 0.00 | 0.28 | 0.00 | 54 | 1005.0 |
| 20260506090658 | 13 | 120 | 0.0 | 0.0 | 0.00 | 0.28 | 0.00 | 55 | 1005.0 |
| 20260506084850 | 13 | 120 | 0.0 | 4.8 | 0.00 | 0.28 | 0.00 | 61 | 1005.0 |
| 20260506083643 | 12 | 120 | 0.0 | 3.2 | 0.00 | 0.28 | 0.00 | 64 | 1005.0 |
| 20260506081838 | 12 | 120 | 0.0 | 0.0 | 0.00 | 0.28 | 0.00 | 64 | 1005.0 |
| 20260506080634 | 12 | 121 | 0.0 | 4.8 | 0.00 | 0.28 | 0.00 | 64 | 1005.0 |
| 20260506073025 | 10 | 187 | 0.0 | 0.0 | 0.00 | 0.28 | 0.00 | 63 | 1005.0 |
| 20260506072425 | 10 | 188 | 0.0 | 0.0 | 0.00 | 0.28 | 0.00 | 62 | 1005.0 |
| 20260506071225 | 10 | 188 | 3.2 | 3.2 | 0.00 | 0.28 | 0.00 | 61 | 1005.0 |
| 20260506060624 | 9 | 187 | 0.0 | 0.0 | 0.00 | 0.28 | 0.00 | 61 | 1005.0 |
| 20260506050625 | 7 | 187 | 0.0 | 0.0 | 0.00 | 0.28 | 0.00 | 59 | 1005.0 |
| 20260506044825 | 6 | 187 | 0.0 | 0.0 | 0.00 | 0.28 | 0.00 | 58 | 1006.0 |
| 20260506043019 | 6 | 187 | 0.0 | 3.2 | 0.00 | 0.28 | 0.00 | 57 | 1006.0 |
| 20260506042419 | 6 | 187 | 3.2 | 4.8 | 0.00 | 0.28 | 0.00 | 56 | 1006.0 |
| 20260506041819 | 6 | 187 | 3.2 | 3.2 | 0.00 | 0.28 | 0.00 | 56 | 1006.0 |
| 20260506040616 | 6 | 187 | 4.8 | 4.8 | 0.00 | 0.28 | 0.00 | 55 | 1006.0 |
| 20260506040014 | 6 | 187 | 0.0 | 0.0 | 0.00 | 0.28 | 0.00 | 56 | 1006.0 |
| 20260506035410 | 6 | 187 | 0.0 | 0.0 | 0.00 | 0.28 | 0.00 | 55 | 1006.0 |
| 20260506034808 | 6 | 187 | 0.0 | 0.0 | 0.00 | 0.28 | 0.00 | 55 | 1006.0 |
| 20260506034207 | 6 | 187 | 0.0 | 0.0 | 0.00 | 0.28 | 0.00 | 55 | 1006.0 |
| 20260506033000 | 6 | 188 | 3.2 | 3.2 | 0.00 | 0.28 | 0.00 | 54 | 1006.0 |
| 20260506031151 | 6 | 188 | 0.0 | 0.0 | 0.00 | 0.28 | 0.00 | 54 | 1006.0 |
| 20260506030548 | 6 | 188 | 0.0 | 0.0 | 0.00 | 0.28 | 0.00 | 54 | 1006.0 |
| 20260506024735 | 6 | 187 | 0.0 | 3.2 | 0.00 | 0.28 | 0.00 | 54 | 1007.0 |
| 20260506023532 | 6 | 188 | 0.0 | 0.0 | 0.00 | 0.28 | 0.00 | 54 | 1007.0 |
| 20260506022928 | 6 | 188 | 0.0 | 0.0 | 0.00 | 0.28 | 0.00 | 54 | 1007.0 |
| 20260506022325 | 6 | 187 | 0.0 | 0.0 | 0.00 | 0.28 | 0.00 | 54 | 1007.0 |
| 20260506021726 | 6 | 187 | 0.0 | 0.0 | 0.00 | 0.28 | 0.00 | 53 | 1007.0 |
| 20260506021122 | 6 | 186 | 0.0 | 0.0 | 0.00 | 0.28 | 0.00 | 53 | 1007.0 |
| 20260506020516 | 6 | 188 | 0.0 | 0.0 | 0.00 | 0.28 | 0.00 | 53 | 1007.0 |
| 20260506015913 | 6 | 188 | 0.0 | 0.0 | 0.00 | 0.28 | 0.00 | 52 | 1007.0 |
| 20260506015311 | 6 | 187 | 0.0 | 0.0 | 0.00 | 0.28 | 0.00 | 52 | 1007.0 |
| 20260506014104 | 6 | 187 | 0.0 | 0.0 | 0.00 | 0.28 | 0.00 | 52 | 1007.0 |
| 20260506013503 | 6 | 188 | 0.0 | 0.0 | 0.00 | 0.28 | 0.00 | 52 | 1007.0 |
| 20260506012857 | 6 | 187 | 0.0 | 0.0 | 0.00 | 0.28 | 0.00 | 52 | 1007.0 |
| 20260506012255 | 6 | 188 | 0.0 | 0.0 | 0.00 | 0.28 | 0.00 | 52 | 1007.0 |
| 20260506011051 | 6 | 187 | 0.0 | 0.0 | 0.00 | 0.28 | 0.00 | 51 | 1007.0 |
| 20260506010450 | 6 | 188 | 0.0 | 0.0 | 0.00 | 0.28 | 0.00 | 51 | 1007.0 |
| 20260506005846 | 6 | 188 | 0.0 | 4.8 | 0.00 | 0.28 | 0.00 | 50 | 1007.0 |
| 20260506005247 | 6 | 187 | 0.0 | 0.0 | 0.00 | 0.28 | 0.00 | 50 | 1007.0 |
| 20260506004645 | 6 | 188 | 0.0 | 0.0 | 0.00 | 0.28 | 0.00 | 50 | 1007.0 |
| 20260506004043 | 6 | 188 | 0.0 | 0.0 | 0.00 | 0.28 | 0.00 | 50 | 1007.0 |
| 20260506002840 | 6 | 187 | 3.2 | 3.2 | 0.00 | 0.28 | 0.00 | 49 | 1008.0 |
| 20260506002240 | 6 | 187 | 0.0 | 0.0 | 0.00 | 0.28 | 0.00 | 49 | 1007.0 |
| 20260506001640 | 6 | 187 | 0.0 | 4.8 | 0.00 | 0.28 | 0.00 | 49 | 1007.0 |
| 20260506001041 | 6 | 187 | 3.2 | 3.2 | 0.00 | 0.28 | 0.00 | 49 | 1007.0 |
| 20260506000440 | 6 | 187 | 4.8 | 4.8 | 0.00 | 0.28 | 0.00 | 48 | 1008.0 |
| 20260505235840 | 6 | 187 | 4.8 | 4.8 | 0.00 | 0.28 | 0.00 | 49 | 1008.0 |
| 20260505235240 | 6 | 188 | 0.0 | 0.0 | 0.00 | 0.28 | 0.00 | 48 | 1008.0 |
| 20260505234640 | 6 | 187 | 0.0 | 3.2 | 0.00 | 0.28 | 0.00 | 48 | 1008.0 |
| 20260505234040 | 7 | 187 | 0.0 | 4.8 | 0.00 | 0.28 | 0.00 | 48 | 1008.0 |
| 20260505232833 | 7 | 188 | 0.0 | 0.0 | 0.00 | 0.28 | 0.00 | 48 | 1008.0 |
| 20260505232231 | 7 | 188 | 0.0 | 0.0 | 0.00 | 0.28 | 0.00 | 48 | 1008.0 |
| 20260505231027 | 7 | 188 | 0.0 | 0.0 | 0.00 | 0.28 | 0.00 | 47 | 1008.0 |
| 20260505230425 | 7 | 187 | 0.0 | 3.2 | 0.00 | 0.28 | 0.00 | 47 | 1008.0 |
| 20260505224009 | 9 | 188 | 0.0 | 0.0 | 0.00 | 0.28 | 0.00 | 46 | 1008.0 |
| 20260505222808 | 10 | 187 | 0.0 | 3.2 | 0.00 | 0.28 | 0.00 | 47 | 1008.0 |
| 20260505222204 | 10 | 188 | 3.2 | 4.8 | 0.00 | 0.28 | 0.00 | 47 | 1008.0 |
| 20260505221558 | 10 | 215 | 4.8 | 4.8 | 0.00 | 0.28 | 0.00 | 46 | 1008.0 |
| 20260505220955 | 10 | 153 | 6.4 | 6.4 | 0.00 | 0.28 | 0.00 | 46 | 1008.0 |
| 20260505215751 | 10 | 162 | 4.8 | 6.4 | 0.00 | 0.00 | 0.00 | 47 | 1008.0 |
| 20260505215148 | 10 | 204 | 3.2 | 4.8 | 0.00 | 0.00 | 0.00 | 51 | 1008.0 |
| 20260505214547 | 10 | 180 | 4.8 | 4.8 | 0.00 | 0.00 | 0.00 | 53 | 1008.0 |
| 20260505212736 | 10 | 214 | 4.8 | 4.8 | 0.00 | 0.00 | 0.00 | 57 | 1008.0 |
| 20260505211534 | 10 | 201 | 4.8 | 6.4 | 0.28 | 0.00 | 0.00 | 57 | 1008.0 |
| 20260505210928 | 10 | 230 | 4.8 | 4.8 | 0.28 | 0.00 | 0.00 | 57 | 1008.0 |
| 20260505205722 | 10 | 144 | 0.0 | 6.4 | 0.28 | 0.00 | 0.00 | 57 | 1008.0 |
| 20260505205120 | 10 | 216 | 3.2 | 4.8 | 0.28 | 0.00 | 0.00 | 58 | 1008.0 |
| 20260505204519 | 10 | 192 | 3.2 | 6.4 | 0.28 | 0.00 | 0.00 | 60 | 1008.0 |
| 20260505203916 | 10 | 209 | 4.8 | 4.8 | 0.28 | 0.00 | 0.00 | 60 | 1008.0 |
| 20260505203314 | 10 | 206 | 4.8 | 4.8 | 0.28 | 0.00 | 0.00 | 59 | 1008.0 |
| 20260505202713 | 10 | 285 | 3.2 | 4.8 | 0.28 | 0.00 | 0.00 | 60 | 1008.0 |
| 20260505202110 | 10 | 215 | 6.4 | 9.7 | 0.28 | 0.00 | 0.00 | 62 | 1008.0 |
| 20260505201508 | 10 | 127 | 0.0 | 8.0 | 0.28 | 0.00 | 0.00 | 64 | 1008.0 |
| 20260505200905 | 9 | 189 | 0.0 | 4.8 | 0.28 | 0.00 | 0.00 | 64 | 1008.0 |
| 20260505195703 | 9 | 198 | 0.0 | 3.2 | 0.28 | 0.00 | 0.00 | 63 | 1008.0 |
| 20260505195058 | 9 | 171 | 0.0 | 0.0 | 0.28 | 0.00 | 0.00 | 64 | 1008.0 |
| 20260505193900 | 9 | 171 | 0.0 | 3.2 | 0.28 | 0.00 | 0.00 | 64 | 1008.0 |
| 20260505193255 | 9 | 149 | 3.2 | 4.8 | 0.28 | 0.00 | 0.00 | 65 | 1008.0 |
| 20260505192046 | 9 | 164 | 4.8 | 6.4 | 0.28 | 0.00 | 0.00 | 64 | 1008.0 |
| 20260505190843 | 10 | 122 | 4.8 | 6.4 | 0.38 | 0.00 | 0.00 | 61 | 1008.0 |
| 20260505190238 | 10 | 192 | 4.8 | 6.4 | 0.38 | 0.00 | 0.00 | 58 | 1008.0 |
| 20260505185635 | 10 | 219 | 6.4 | 9.7 | 0.38 | 0.00 | 0.00 | 56 | 1008.0 |
| 20260505184426 | 10 | 191 | 9.7 | 9.7 | 0.00 | 0.00 | 0.00 | 47 | 1008.0 |
| 20260505183821 | 11 | 258 | 12.9 | 12.9 | 0.00 | 0.00 | 0.00 | 50 | 1007.0 |
| 20260505182618 | 12 | 260 | 0.0 | 0.0 | 0.00 | 0.00 | 0.00 | 51 | 1007.0 |
| 20260505181413 | 12 | 260 | 4.8 | 4.8 | 0.00 | 0.00 | 0.00 | 51 | 1007.0 |
| 20260505174410 | 12 | 260 | 4.8 | 4.8 | 0.00 | 0.00 | 0.00 | 47 | 1006.0 |
| 20260505173207 | 13 | 258 | 8.0 | 8.0 | 0.00 | 0.00 | 0.00 | 45 | 1006.0 |
| 20260505163805 | 15 | 239 | 3.2 | 3.2 | 0.00 | 0.00 | 0.00 | 33 | 1006.0 |
| 20260505152003 | 15 | 241 | 4.8 | 4.8 | 0.00 | 0.00 | 0.00 | 29 | 1006.0 |
| 20260505150803 | 15 | 240 | 0.0 | 4.8 | 0.00 | 0.00 | 0.00 | 26 | 1006.0 |
| 20260505124314 | 15 | 260 | 4.8 | 4.8 | 0.00 | 0.00 | 0.00 | 34 | 1006.0 |
| 20260505123706 | 15 | 261 | 0.0 | 0.0 | 0.00 | 0.00 | 0.00 | 36 | 1006.0 |
| 20260505123102 | 14 | 261 | 0.0 | 4.8 | 0.00 | 0.00 | 0.00 | 36 | 1006.0 |
| 20260505121257 | 15 | 262 | 0.0 | 4.8 | 0.00 | 0.00 | 0.00 | 36 | 1006.0 |
| 20260505115452 | 14 | 261 | 0.0 | 3.2 | 0.00 | 0.00 | 0.00 | 37 | 1006.0 |
| 20260505113641 | 13 | 261 | 0.0 | 3.2 | 0.00 | 0.00 | 0.00 | 40 | 1007.0 |